Time,TemperatureF,DewpointF,PressureIn,WindDirection,WindDirectionDegrees,WindSpeedMPH,WindSpeedGustMPH,Humidity,HourlyPrecipIn,Conditions,Clouds,dailyrainin,SoftwareType,DateUTC
2013-03-15 00:00:00,31.2,25.1,30.03,SSW,208,9.0,22.0,78,0.00,,,0.02,Wunderground v.1.15,2013-03-15 04:00:00,
2013-03-15 00:05:00,31.2,25.4,30.03,SW,236,9.0,22.0,79,0.00,,,0.02,Wunderground v.1.15,2013-03-15 04:05:00,
2013-03-15 00:10:00,31.4,25.6,30.02,SSW,205,10.0,10.0,79,0.00,,,0.02,Wunderground v.1.15,2013-03-15 04:10:00,
2013-03-15 00:15:00,31.5,25.7,30.01,SSW,206,10.0,22.0,79,0.00,,,0.00,Wunderground v.1.15,2013-03-15 04:15:00,
2013-03-15 00:20:00,31.6,25.8,30.01,SW,215,9.0,9.0,79,0.00,,,0.00,Wunderground v.1.15,2013-03-15 04:20:00,
2013-03-15 00:25:00,31.6,25.8,30.01,SSW,198,9.0,12.0,79,0.00,,,0.00,Wunderground v.1.15,2013-03-15 04:25:00,
2013-03-15 00:30:00,31.7,25.6,30.01,SSW,207,9.0,9.0,78,0.00,,,0.00,Wunderground v.1.15,2013-03-15 04:30:00,
2013-03-15 00:35:00,31.6,25.8,30.01,SSW,211,8.0,22.0,79,0.00,,,0.00,Wunderground v.1.15,2013-03-15 04:35:00,
2013-03-15 00:45:00,31.6,26.1,30.01,SW,227,7.0,9.0,80,0.00,,,0.00,Wunderground v.1.15,2013-03-15 04:45:00,
2013-03-15 00:50:00,31.5,26.3,30.00,SSW,204,7.0,22.0,81,0.00,,,0.00,Wunderground v.1.15,2013-03-15 04:50:00,
2013-03-15 00:55:00,31.5,26.9,30.00,SSW,209,7.0,22.0,83,0.00,,,0.00,Wunderground v.1.15,2013-03-15 04:55:00,
2013-03-15 01:00:00,31.4,27.1,30.00,SW,217,8.0,22.0,84,0.00,,,0.00,Wunderground v.1.15,2013-03-15 05:00:00,
2013-03-15 01:05:00,31.2,27.5,30.00,SSW,199,7.0,22.0,86,0.00,,,0.00,Wunderground v.1.15,2013-03-15 05:05:00,
2013-03-15 01:15:00,31.6,28.7,30.00,SW,229,7.0,8.0,89,0.00,,,0.00,Wunderground v.1.15,2013-03-15 05:15:00,
2013-03-15 01:20:00,32.0,29.1,29.99,SW,236,7.0,7.0,89,0.00,,,0.00,Wunderground v.1.15,2013-03-15 05:20:00,
2013-03-15 01:25:00,32.2,29.3,29.99,SW,226,8.0,9.0,89,0.00,,,0.00,Wunderground v.1.15,2013-03-15 05:25:00,
2013-03-15 01:30:00,32.3,29.4,29.99,SW,230,9.0,22.0,89,0.00,,,0.00,Wunderground v.1.15,2013-03-15 05:30:00,
2013-03-15 01:35:00,32.3,29.7,29.98,WSW,237,11.0,22.0,90,0.00,,,0.00,Wunderground v.1.15,2013-03-15 05:35:00,
2013-03-15 01:40:00,32.4,29.5,29.98,WSW,246,11.0,22.0,89,0.00,,,0.00,Wunderground v.1.15,2013-03-15 05:40:00,
2013-03-15 01:50:00,32.7,29.5,29.98,SW,232,13.0,13.0,88,0.00,,,0.00,Wunderground v.1.15,2013-03-15 05:50:00,
2013-03-15 01:55:00,32.9,29.5,29.97,SW,217,13.0,22.0,87,0.00,,,0.00,Wunderground v.1.15,2013-03-15 05:55:00,
2013-03-15 02:00:00,32.9,29.5,29.97,WSW,250,13.0,22.0,87,0.00,,,0.00,Wunderground v.1.15,2013-03-15 06:00:00,
2013-03-15 02:05:00,32.9,29.5,29.97,WSW,237,14.0,22.0,87,0.00,,,0.00,Wunderground v.1.15,2013-03-15 06:05:00,
2013-03-15 02:10:00,33.0,29.6,29.97,WSW,252,14.0,14.0,87,0.00,,,0.00,Wunderground v.1.15,2013-03-15 06:10:00,
2013-03-15 02:20:00,32.9,29.5,29.97,SW,234,14.0,14.0,87,0.00,,,0.00,Wunderground v.1.15,2013-03-15 06:20:00,
2013-03-15 02:25:00,32.8,29.6,29.97,SW,227,14.0,22.0,88,0.00,,,0.00,Wunderground v.1.15,2013-03-15 06:25:00,
2013-03-15 02:30:00,32.8,29.6,29.97,SW,232,14.0,14.0,88,0.00,,,0.00,Wunderground v.1.15,2013-03-15 06:30:00,
2013-03-15 02:35:00,32.9,30.0,29.97,WSW,244,14.0,19.0,89,0.00,,,0.00,Wunderground v.1.15,2013-03-15 06:35:00,
2013-03-15 02:40:00,32.9,30.0,29.97,SW,235,14.0,14.0,89,0.00,,,0.00,Wunderground v.1.15,2013-03-15 06:40:00,
2013-03-15 02:45:00,32.9,30.0,29.96,SW,230,14.0,15.0,89,0.00,,,0.00,Wunderground v.1.15,2013-03-15 06:45:00,
2013-03-15 02:55:00,32.9,30.3,29.96,WSW,240,12.0,22.0,90,0.00,,,0.00,Wunderground v.1.15,2013-03-15 06:55:00,
2013-03-15 03:00:00,32.9,30.3,29.96,WSW,239,13.0,22.0,90,0.00,,,0.00,Wunderground v.1.15,2013-03-15 07:00:00,
2013-03-15 03:05:00,32.9,30.3,29.96,SW,231,14.0,22.0,90,0.00,,,0.00,Wunderground v.1.15,2013-03-15 07:05:00,
2013-03-15 03:15:00,32.7,30.4,29.96,SW,229,12.0,22.0,91,0.00,,,0.00,Wunderground v.1.15,2013-03-15 07:15:00,
2013-03-15 03:25:00,32.5,30.4,29.95,SW,236,12.0,22.0,92,0.00,,,0.00,Wunderground v.1.15,2013-03-15 07:25:00,
2013-03-15 03:30:00,32.6,30.5,29.95,SW,233,12.0,12.0,92,0.00,,,0.00,Wunderground v.1.15,2013-03-15 07:30:00,
2013-03-15 03:35:00,32.6,30.5,29.95,SW,229,12.0,22.0,92,0.00,,,0.00,Wunderground v.1.15,2013-03-15 07:35:00,
2013-03-15 03:40:00,32.7,30.4,29.95,SW,232,12.0,12.0,91,0.00,,,0.00,Wunderground v.1.15,2013-03-15 07:40:00,
2013-03-15 03:45:00,32.8,30.5,29.94,WSW,244,12.0,22.0,91,0.00,,,0.00,Wunderground v.1.15,2013-03-15 07:45:00,
2013-03-15 03:50:00,32.9,30.6,29.95,SW,234,12.0,12.0,91,0.00,,,0.00,Wunderground v.1.15,2013-03-15 07:50:00,
2013-03-15 04:00:00,33.0,30.7,29.94,SW,236,13.0,13.0,91,0.00,,,0.00,Wunderground v.1.15,2013-03-15 08:00:00,
2013-03-15 04:05:00,32.9,30.6,29.93,SW,236,12.0,22.0,91,0.00,,,0.00,Wunderground v.1.15,2013-03-15 08:05:00,
2013-03-15 04:10:00,33.0,30.7,29.93,WSW,242,12.0,22.0,91,0.00,,,0.00,Wunderground v.1.15,2013-03-15 08:10:00,
2013-03-15 04:15:00,33.2,30.9,29.93,SW,227,12.0,22.0,91,0.00,,,0.00,Wunderground v.1.15,2013-03-15 08:15:00,
2013-03-15 04:20:00,33.1,30.8,29.93,SW,236,13.0,22.0,91,0.00,,,0.00,Wunderground v.1.15,2013-03-15 08:20:00,
2013-03-15 04:30:00,33.2,30.9,29.93,SW,232,13.0,22.0,91,0.00,,,0.00,Wunderground v.1.15,2013-03-15 08:30:00,
2013-03-15 04:35:00,33.2,30.9,29.93,SW,233,13.0,22.0,91,0.00,,,0.00,Wunderground v.1.15,2013-03-15 08:35:00,
2013-03-15 04:40:00,33.1,30.8,29.92,WSW,249,12.0,22.0,91,0.00,,,0.00,Wunderground v.1.15,2013-03-15 08:40:00,
2013-03-15 04:45:00,33.1,30.8,29.92,SW,230,11.0,22.0,91,0.00,,,0.00,Wunderground v.1.15,2013-03-15 08:45:00,
2013-03-15 04:50:00,33.2,30.9,29.92,SW,236,11.0,11.0,91,0.00,,,0.00,Wunderground v.1.15,2013-03-15 08:50:00,
2013-03-15 04:55:00,33.2,30.9,29.91,SW,232,11.0,22.0,91,0.00,,,0.00,Wunderground v.1.15,2013-03-15 08:55:00,
2013-03-15 05:05:00,33.3,30.7,29.91,WSW,250,11.0,12.0,90,0.00,,,0.00,Wunderground v.1.15,2013-03-15 09:05:00,
2013-03-15 05:10:00,33.4,30.8,29.91,SW,232,12.0,22.0,90,0.00,,,0.00,Wunderground v.1.15,2013-03-15 09:10:00,
2013-03-15 05:15:00,33.4,30.8,29.91,WSW,237,12.0,22.0,90,0.00,,,0.00,Wunderground v.1.15,2013-03-15 09:15:00,
2013-03-15 05:20:00,33.5,30.6,29.91,WSW,238,12.0,22.0,89,0.00,,,0.00,Wunderground v.1.15,2013-03-15 09:20:00,
2013-03-15 05:30:00,33.5,30.9,29.91,WSW,257,13.0,22.0,90,0.00,,,0.00,Wunderground v.1.15,2013-03-15 09:30:00,
2013-03-15 05:35:00,33.5,30.9,29.90,SW,226,13.0,22.0,90,0.00,,,0.00,Wunderground v.1.15,2013-03-15 09:35:00,
2013-03-15 05:40:00,33.6,31.0,29.90,WSW,242,14.0,22.0,90,0.00,,,0.00,Wunderground v.1.15,2013-03-15 09:40:00,
2013-03-15 05:50:00,33.7,30.8,29.90,WSW,247,13.0,13.0,89,0.00,,,0.00,Wunderground v.1.15,2013-03-15 09:50:00,
2013-03-15 05:55:00,33.7,31.1,29.90,WSW,248,13.0,14.0,90,0.00,,,0.00,Wunderground v.1.15,2013-03-15 09:55:00,
2013-03-15 06:00:00,33.7,31.1,29.90,SW,236,13.0,22.0,90,0.00,,,0.00,Wunderground v.1.15,2013-03-15 10:00:00,
2013-03-15 06:05:00,33.7,31.1,29.90,WSW,252,13.0,22.0,90,0.00,,,0.00,Wunderground v.1.15,2013-03-15 10:05:00,
2013-03-15 06:10:00,33.7,31.1,29.90,WSW,244,12.0,12.0,90,0.00,,,0.00,Wunderground v.1.15,2013-03-15 10:10:00,
2013-03-15 06:15:00,33.8,30.9,29.90,WSW,244,12.0,22.0,89,0.00,,,0.00,Wunderground v.1.15,2013-03-15 10:15:00,
2013-03-15 06:25:00,33.7,30.8,29.90,WSW,246,12.0,22.0,89,0.00,,,0.00,Wunderground v.1.15,2013-03-15 10:25:00,
2013-03-15 06:30:00,33.8,30.9,29.90,WSW,245,12.0,12.0,89,0.00,,,0.00,Wunderground v.1.15,2013-03-15 10:30:00,
2013-03-15 06:35:00,33.8,30.9,29.90,WSW,247,12.0,22.0,89,0.00,,,0.00,Wunderground v.1.15,2013-03-15 10:35:00,
2013-03-15 06:40:00,33.9,31.0,29.91,West,259,11.0,22.0,89,0.00,,,0.00,Wunderground v.1.15,2013-03-15 10:40:00,
2013-03-15 06:45:00,33.9,31.0,29.91,WSW,244,12.0,22.0,89,0.00,,,0.00,Wunderground v.1.15,2013-03-15 10:45:00,
2013-03-15 06:55:00,33.9,31.0,29.91,WSW,248,11.0,22.0,89,0.00,,,0.00,Wunderground v.1.15,2013-03-15 10:55:00,
2013-03-15 07:05:00,33.9,31.0,29.91,West,263,12.0,22.0,89,0.00,,,0.00,Wunderground v.1.15,2013-03-15 11:05:00,
2013-03-15 07:15:00,33.9,30.7,29.91,West,272,11.0,22.0,88,0.00,,,0.00,Wunderground v.1.15,2013-03-15 11:15:00,
2013-03-15 07:20:00,33.9,31.0,29.91,WSW,252,11.0,22.0,89,0.00,,,0.00,Wunderground v.1.15,2013-03-15 11:20:00,
2013-03-15 07:25:00,33.8,30.6,29.92,West,267,11.0,22.0,88,0.00,,,0.00,Wunderground v.1.15,2013-03-15 11:25:00,
2013-03-15 07:30:00,33.8,30.6,29.92,West,264,11.0,11.0,88,0.00,,,0.00,Wunderground v.1.15,2013-03-15 11:30:00,
2013-03-15 07:40:00,33.2,30.3,29.92,West,277,11.0,11.0,89,0.00,,,0.00,Wunderground v.1.15,2013-03-15 11:40:00,
2013-03-15 07:45:00,32.9,30.0,29.92,West,279,11.0,22.0,89,0.00,,,0.00,Wunderground v.1.15,2013-03-15 11:45:00,
2013-03-15 07:50:00,32.7,30.1,29.92,West,273,10.0,22.0,90,0.00,,,0.00,Wunderground v.1.15,2013-03-15 11:50:00,
2013-03-15 08:00:00,32.2,29.6,29.93,WNW,289,9.0,9.0,90,0.00,,,0.00,Wunderground v.1.15,2013-03-15 12:00:00,
2013-03-15 08:05:00,32.0,29.4,29.93,WNW,292,9.0,10.0,90,0.00,,,0.00,Wunderground v.1.15,2013-03-15 12:05:00,
2013-03-15 08:10:00,31.6,28.5,29.93,NW,313,8.0,22.0,88,0.00,,,0.00,Wunderground v.1.15,2013-03-15 12:10:00,
2013-03-15 08:15:00,31.3,27.6,29.94,NW,304,8.0,22.0,86,0.00,,,0.00,Wunderground v.1.15,2013-03-15 12:15:00,
2013-03-15 08:20:00,31.3,27.0,29.94,WNW,284,8.0,22.0,84,0.00,,,0.00,Wunderground v.1.15,2013-03-15 12:20:00,
2013-03-15 08:25:00,31.2,26.9,29.94,WNW,287,8.0,22.0,84,0.00,,,0.00,Wunderground v.1.15,2013-03-15 12:25:00,
2013-03-15 08:35:00,31.2,26.6,29.94,NNW,336,7.0,22.0,83,0.00,,,0.00,Wunderground v.1.15,2013-03-15 12:35:00,
2013-03-15 08:40:00,31.1,26.2,29.94,WNW,283,5.0,22.0,82,0.00,,,0.00,Wunderground v.1.15,2013-03-15 12:40:00,
2013-03-15 08:45:00,31.0,25.9,29.94,WNW,302,6.0,22.0,81,0.00,,,0.00,Wunderground v.1.15,2013-03-15 12:45:00,
2013-03-15 08:50:00,30.9,25.5,29.95,NW,317,7.0,22.0,80,0.00,,,0.00,Wunderground v.1.15,2013-03-15 12:50:00,
2013-03-15 08:55:00,30.7,25.0,29.95,WNW,295,8.0,22.0,79,0.00,,,0.00,Wunderground v.1.15,2013-03-15 12:55:00,
2013-03-15 09:05:00,30.6,24.6,29.95,WNW,292,8.0,9.0,78,0.00,,,0.00,Wunderground v.1.15,2013-03-15 13:05:00,
2013-03-15 09:10:00,30.5,24.5,29.95,NW,306,8.0,8.0,78,0.00,,,0.00,Wunderground v.1.15,2013-03-15 13:10:00,
2013-03-15 09:15:00,30.4,24.7,29.95,West,279,8.0,11.0,79,0.00,,,0.00,Wunderground v.1.15,2013-03-15 13:15:00,
2013-03-15 09:20:00,30.4,25.3,29.95,WNW,297,9.0,9.0,81,0.00,,,0.00,Wunderground v.1.15,2013-03-15 13:20:00,
2013-03-15 09:25:00,30.3,24.9,29.96,West,281,10.0,11.0,80,0.00,,,0.00,Wunderground v.1.15,2013-03-15 13:25:00,
2013-03-15 09:30:00,30.3,24.9,29.96,WNW,286,10.0,22.0,80,0.00,,,0.00,Wunderground v.1.15,2013-03-15 13:30:00,
2013-03-15 09:40:00,30.1,24.4,29.96,WNW,298,10.0,10.0,79,0.00,,,0.00,Wunderground v.1.15,2013-03-15 13:40:00,
2013-03-15 09:45:00,30.1,23.8,29.96,West,280,8.0,22.0,77,0.00,,,0.00,Wunderground v.1.15,2013-03-15 13:45:00,
2013-03-15 09:55:00,30.0,23.7,29.97,WNW,295,8.0,22.0,77,0.00,,,0.00,Wunderground v.1.15,2013-03-15 13:55:00,
2013-03-15 10:00:00,29.9,23.9,29.97,NW,311,7.0,22.0,78,0.00,,,0.00,Wunderground v.1.15,2013-03-15 14:00:00,
2013-03-15 10:10:00,29.9,22.9,29.97,WNW,300,7.0,22.0,75,0.00,,,0.00,Wunderground v.1.15,2013-03-15 14:10:00,
2013-03-15 10:15:00,29.8,23.2,29.97,West,271,8.0,22.0,76,0.00,,,0.00,Wunderground v.1.15,2013-03-15 14:15:00,
2013-03-15 10:20:00,29.8,23.5,29.97,NW,306,8.0,22.0,77,0.00,,,0.00,Wunderground v.1.15,2013-03-15 14:20:00,
2013-03-15 10:25:00,29.7,22.7,29.97,NW,316,8.0,22.0,75,0.00,,,0.00,Wunderground v.1.15,2013-03-15 14:25:00,
2013-03-15 10:30:00,29.9,22.6,29.97,West,279,7.0,22.0,74,0.00,,,0.00,Wunderground v.1.15,2013-03-15 14:30:00,
2013-03-15 10:35:00,29.8,22.5,29.97,WNW,288,7.0,22.0,74,0.00,,,0.00,Wunderground v.1.15,2013-03-15 14:35:00,
2013-03-15 10:45:00,29.6,23.0,29.97,WNW,301,9.0,22.0,76,0.00,,,0.00,Wunderground v.1.15,2013-03-15 14:45:00,
2013-03-15 10:50:00,29.7,22.4,29.97,WNW,296,8.0,22.0,74,0.00,,,0.00,Wunderground v.1.15,2013-03-15 14:50:00,
2013-03-15 10:55:00,29.6,22.6,29.98,West,281,8.0,22.0,75,0.00,,,0.00,Wunderground v.1.15,2013-03-15 14:55:00,
2013-03-15 11:05:00,29.8,22.5,29.98,WNW,291,7.0,8.0,74,0.00,,,0.00,Wunderground v.1.15,2013-03-15 15:05:00,
2013-03-15 11:20:00,29.5,22.6,29.98,WNW,298,8.0,22.0,75,0.00,,,0.00,Wunderground v.1.15,2013-03-15 15:20:00,
2013-03-15 11:25:00,29.5,22.6,29.98,WNW,291,8.0,22.0,75,0.00,,,0.00,Wunderground v.1.15,2013-03-15 15:25:00,
2013-03-15 11:35:00,29.3,22.7,29.98,NW,310,8.0,22.0,76,0.00,,,0.00,Wunderground v.1.15,2013-03-15 15:35:00,
2013-03-15 11:40:00,29.3,22.0,29.98,WNW,296,9.0,9.0,74,0.00,,,0.00,Wunderground v.1.15,2013-03-15 15:40:00,
2013-03-15 11:45:00,29.3,21.7,29.98,WNW,287,8.0,22.0,73,0.00,,,0.00,Wunderground v.1.15,2013-03-15 15:45:00,
2013-03-15 11:55:00,29.3,22.4,29.98,West,277,8.0,22.0,75,0.00,,,0.00,Wunderground v.1.15,2013-03-15 15:55:00,
2013-03-15 12:05:00,29.2,22.3,29.98,NW,324,8.0,22.0,75,0.00,,,0.00,Wunderground v.1.15,2013-03-15 16:05:00,
2013-03-15 12:10:00,29.4,21.8,29.97,West,281,7.0,22.0,73,0.00,,,0.00,Wunderground v.1.15,2013-03-15 16:10:00,
2013-03-15 12:15:00,29.3,22.0,29.97,WNW,290,8.0,22.0,74,0.00,,,0.00,Wunderground v.1.15,2013-03-15 16:15:00,
2013-03-15 12:20:00,29.6,22.3,29.97,West,280,8.0,22.0,74,0.00,,,0.00,Wunderground v.1.15,2013-03-15 16:20:00,
2013-03-15 12:25:00,29.5,22.6,29.97,West,275,9.0,22.0,75,0.00,,,0.00,Wunderground v.1.15,2013-03-15 16:25:00,
2013-03-15 12:30:00,29.4,22.5,29.97,WNW,296,9.0,9.0,75,0.00,,,0.00,Wunderground v.1.15,2013-03-15 16:30:00,
2013-03-15 12:40:00,29.4,22.1,29.97,WNW,291,9.0,22.0,74,0.00,,,0.00,Wunderground v.1.15,2013-03-15 16:40:00,
2013-03-15 12:45:00,29.6,22.3,29.97,WNW,294,10.0,22.0,74,0.00,,,0.00,Wunderground v.1.15,2013-03-15 16:45:00,
2013-03-15 12:50:00,29.5,21.9,29.97,WNW,296,9.0,22.0,73,0.00,,,0.00,Wunderground v.1.15,2013-03-15 16:50:00,
2013-03-15 12:55:00,29.5,22.6,29.97,West,279,10.0,22.0,75,0.00,,,0.00,Wunderground v.1.15,2013-03-15 16:55:00,
2013-03-15 13:00:00,29.6,22.0,29.97,WNW,296,9.0,22.0,73,0.00,,,0.00,Wunderground v.1.15,2013-03-15 17:00:00,
2013-03-15 13:10:00,29.7,21.4,29.97,NW,306,9.0,9.0,71,0.00,,,0.00,Wunderground v.1.15,2013-03-15 17:10:00,
2013-03-15 13:15:00,29.8,22.5,29.97,WNW,301,9.0,22.0,74,0.00,,,0.00,Wunderground v.1.15,2013-03-15 17:15:00,
2013-03-15 13:20:00,29.7,22.1,29.97,WNW,297,8.0,22.0,73,0.00,,,0.00,Wunderground v.1.15,2013-03-15 17:20:00,
2013-03-15 13:25:00,29.5,22.2,29.97,WNW,284,9.0,22.0,74,0.00,,,0.00,Wunderground v.1.15,2013-03-15 17:25:00,
2013-03-15 13:30:00,29.2,22.6,29.97,WNW,292,9.0,22.0,76,0.00,,,0.00,Wunderground v.1.15,2013-03-15 17:30:00,
2013-03-15 13:35:00,28.9,22.3,29.97,West,273,9.0,22.0,76,0.00,,,0.00,Wunderground v.1.15,2013-03-15 17:35:00,
2013-03-15 13:45:00,28.8,22.5,29.97,WNW,296,8.0,22.0,77,0.00,,,0.00,Wunderground v.1.15,2013-03-15 17:45:00,
2013-03-15 13:50:00,28.8,22.8,29.98,WNW,284,8.0,22.0,78,0.00,,,0.00,Wunderground v.1.15,2013-03-15 17:50:00,
2013-03-15 13:55:00,28.8,22.2,29.97,West,265,8.0,22.0,76,0.00,,,0.00,Wunderground v.1.15,2013-03-15 17:55:00,
2013-03-15 14:00:00,28.8,22.2,29.97,West,276,8.0,22.0,76,0.00,,,0.00,Wunderground v.1.15,2013-03-15 18:00:00,
2013-03-15 14:05:00,28.9,22.9,29.97,WNW,282,9.0,22.0,78,0.00,,,0.00,Wunderground v.1.15,2013-03-15 18:05:00,
2013-03-15 14:15:00,29.0,22.4,29.97,West,276,9.0,22.0,76,0.00,,,0.00,Wunderground v.1.15,2013-03-15 18:15:00,
2013-03-15 14:20:00,29.0,21.7,29.97,WNW,287,8.0,22.0,74,0.00,,,0.00,Wunderground v.1.15,2013-03-15 18:20:00,
2013-03-15 14:30:00,29.2,21.9,29.98,WNW,291,8.0,22.0,74,0.00,,,0.00,Wunderground v.1.15,2013-03-15 18:30:00,
2013-03-15 14:35:00,29.2,22.3,29.98,West,268,8.0,22.0,75,0.00,,,0.00,Wunderground v.1.15,2013-03-15 18:35:00,
2013-03-15 14:40:00,29.0,22.4,29.98,West,271,9.0,9.0,76,0.00,,,0.00,Wunderground v.1.15,2013-03-15 18:40:00,
2013-03-15 14:50:00,28.8,22.2,29.97,West,266,9.0,9.0,76,0.00,,,0.00,Wunderground v.1.15,2013-03-15 18:50:00,
2013-03-15 14:55:00,28.8,22.2,29.97,WNW,288,9.0,22.0,76,0.00,,,0.00,Wunderground v.1.15,2013-03-15 18:55:00,
2013-03-15 15:00:00,28.8,22.2,29.97,West,276,8.0,22.0,76,0.00,,,0.00,Wunderground v.1.15,2013-03-15 19:00:00,
2013-03-15 15:05:00,28.8,22.5,29.97,West,267,8.0,22.0,77,0.00,,,0.00,Wunderground v.1.15,2013-03-15 19:05:00,
2013-03-15 15:10:00,28.7,21.8,29.97,WNW,302,8.0,22.0,75,0.00,,,0.00,Wunderground v.1.15,2013-03-15 19:10:00,
2013-03-15 15:20:00,28.8,22.8,29.97,West,279,8.0,22.0,78,0.00,,,0.00,Wunderground v.1.15,2013-03-15 19:20:00,
2013-03-15 15:25:00,28.8,22.8,29.98,WNW,293,9.0,22.0,78,0.00,,,0.00,Wunderground v.1.15,2013-03-15 19:25:00,
2013-03-15 15:30:00,28.7,22.4,29.97,WNW,284,9.0,22.0,77,0.00,,,0.00,Wunderground v.1.15,2013-03-15 19:30:00,
2013-03-15 15:35:00,28.7,22.4,29.97,West,273,9.0,22.0,77,0.00,,,0.00,Wunderground v.1.15,2013-03-15 19:35:00,
2013-03-15 15:40:00,28.7,22.7,29.98,WNW,293,9.0,22.0,78,0.00,,,0.00,Wunderground v.1.15,2013-03-15 19:40:00,
2013-03-15 15:45:00,28.7,23.3,29.98,West,279,9.0,22.0,80,0.00,,,0.00,Wunderground v.1.15,2013-03-15 19:45:00,
2013-03-15 15:55:00,28.5,22.5,29.97,WNW,286,9.0,22.0,78,0.00,,,0.00,Wunderground v.1.15,2013-03-15 19:55:00,
2013-03-15 16:00:00,28.3,21.4,29.98,WNW,284,8.0,22.0,75,0.00,,,0.00,Wunderground v.1.15,2013-03-15 20:00:00,
2013-03-15 16:05:00,28.3,21.4,29.98,WNW,289,8.0,22.0,75,0.00,,,0.00,Wunderground v.1.15,2013-03-15 20:05:00,
2013-03-15 16:10:00,28.3,21.7,29.98,WNW,286,9.0,22.0,76,0.00,,,0.00,Wunderground v.1.15,2013-03-15 20:10:00,
2013-03-15 16:15:00,28.2,21.3,29.98,West,280,9.0,22.0,75,0.00,,,0.00,Wunderground v.1.15,2013-03-15 20:15:00,
2013-03-15 16:25:00,28.1,21.8,29.98,WNW,298,9.0,22.0,77,0.00,,,0.00,Wunderground v.1.15,2013-03-15 20:25:00,
2013-03-15 16:30:00,28.0,21.1,29.98,West,264,8.0,22.0,75,0.00,,,0.00,Wunderground v.1.15,2013-03-15 20:30:00,
2013-03-15 16:35:00,28.0,21.1,29.99,West,275,8.0,22.0,75,0.00,,,0.00,Wunderground v.1.15,2013-03-15 20:35:00,
2013-03-15 16:40:00,28.0,20.8,29.98,WNW,296,8.0,22.0,74,0.00,,,0.00,Wunderground v.1.15,2013-03-15 20:40:00,
2013-03-15 16:45:00,27.9,20.7,29.98,West,270,7.0,22.0,74,0.00,,,0.00,Wunderground v.1.15,2013-03-15 20:45:00,
2013-03-15 16:50:00,28.0,20.5,29.98,WNW,287,7.0,22.0,73,0.00,,,0.00,Wunderground v.1.15,2013-03-15 20:50:00,
2013-03-15 16:55:00,28.0,20.1,29.98,WNW,296,7.0,22.0,72,0.00,,,0.00,Wunderground v.1.15,2013-03-15 20:55:00,
2013-03-15 17:00:00,28.0,20.1,29.98,WNW,284,7.0,22.0,72,0.00,,,0.00,Wunderground v.1.15,2013-03-15 21:00:00,
2013-03-15 17:05:00,28.0,20.8,29.98,WNW,290,6.0,22.0,74,0.00,,,0.00,Wunderground v.1.15,2013-03-15 21:05:00,
2013-03-15 17:10:00,27.9,20.4,29.98,WNW,291,7.0,22.0,73,0.00,,,0.00,Wunderground v.1.15,2013-03-15 21:10:00,
2013-03-15 17:15:00,27.9,20.4,29.98,WNW,291,7.0,22.0,73,0.00,,,0.00,Wunderground v.1.15,2013-03-15 21:15:00,
2013-03-15 17:20:00,27.8,20.6,29.98,WNW,287,8.0,8.0,74,0.00,,,0.00,Wunderground v.1.15,2013-03-15 21:20:00,
2013-03-15 17:30:00,27.8,19.9,29.98,WNW,303,6.0,22.0,72,0.00,,,0.00,Wunderground v.1.15,2013-03-15 21:30:00,
2013-03-15 17:35:00,27.8,19.9,29.98,WNW,285,6.0,22.0,72,0.00,,,0.00,Wunderground v.1.15,2013-03-15 21:35:00,
2013-03-15 17:40:00,27.8,19.9,29.98,West,281,6.0,6.0,72,0.00,,,0.00,Wunderground v.1.15,2013-03-15 21:40:00,
2013-03-15 17:45:00,27.9,20.4,29.98,NW,323,4.0,22.0,73,0.00,,,0.00,Wunderground v.1.15,2013-03-15 21:45:00,
2013-03-15 17:50:00,28.1,19.9,29.98,WNW,301,2.0,2.0,71,0.00,,,0.00,Wunderground v.1.15,2013-03-15 21:50:00,
2013-03-15 17:55:00,28.3,19.4,29.98,NW,314,2.0,22.0,69,0.00,,,0.00,Wunderground v.1.15,2013-03-15 21:55:00,
2013-03-15 18:10:00,28.1,18.2,29.98,NNW,344,1.0,22.0,66,0.00,,,0.00,Wunderground v.1.15,2013-03-15 22:10:00,
2013-03-15 18:15:00,28.1,17.8,29.98,NW,326,2.0,22.0,65,0.00,,,0.00,Wunderground v.1.15,2013-03-15 22:15:00,
2013-03-15 18:20:00,28.0,17.7,29.98,NNW,340,3.0,22.0,65,0.00,,,0.00,Wunderground v.1.15,2013-03-15 22:20:00,
2013-03-15 18:25:00,27.8,17.2,29.98,NNW,328,3.0,22.0,64,0.00,,,0.00,Wunderground v.1.15,2013-03-15 22:25:00,
2013-03-15 18:30:00,27.7,17.1,29.98,NNE,21,3.0,3.0,64,0.00,,,0.00,Wunderground v.1.15,2013-03-15 22:30:00,
2013-03-15 18:40:00,27.6,17.4,29.99,NW,315,2.0,22.0,65,0.00,,,0.00,Wunderground v.1.15,2013-03-15 22:40:00,
2013-03-15 18:45:00,27.6,17.7,29.98,NNW,327,2.0,22.0,66,0.00,,,0.00,Wunderground v.1.15,2013-03-15 22:45:00,
2013-03-15 18:50:00,27.6,17.7,29.99,NNE,22,2.0,22.0,66,0.00,,,0.00,Wunderground v.1.15,2013-03-15 22:50:00,
2013-03-15 18:55:00,27.4,17.2,29.98,NW,310,1.0,22.0,65,0.00,,,0.00,Wunderground v.1.15,2013-03-15 22:55:00,
2013-03-15 19:00:00,27.3,17.1,29.99,NW,306,1.0,22.0,65,0.00,,,0.00,Wunderground v.1.15,2013-03-15 23:00:00,
2013-03-15 19:10:00,27.2,17.0,29.99,NW,313,1.0,1.0,65,0.00,,,0.00,Wunderground v.1.15,2013-03-15 23:10:00,
2013-03-15 19:15:00,27.0,16.1,29.99,WNW,302,1.0,2.0,63,0.00,,,0.00,Wunderground v.1.15,2013-03-15 23:15:00,
2013-03-15 19:20:00,26.9,16.3,29.99,North,360,2.0,2.0,64,0.00,,,0.00,Wunderground v.1.15,2013-03-15 23:20:00,
2013-03-15 19:25:00,26.7,16.5,29.99,NW,315,1.0,22.0,65,0.00,,,0.00,Wunderground v.1.15,2013-03-15 23:25:00,
2013-03-15 19:30:00,26.6,16.1,29.99,West,274,2.0,2.0,64,0.00,,,0.00,Wunderground v.1.15,2013-03-15 23:30:00,
2013-03-15 19:35:00,26.4,16.2,29.99,NNW,327,2.0,22.0,65,0.00,,,0.00,Wunderground v.1.15,2013-03-15 23:35:00,
2013-03-15 19:45:00,26.2,16.0,29.99,WNW,301,2.0,22.0,65,0.00,,,0.00,Wunderground v.1.15,2013-03-15 23:45:00,
2013-03-15 19:50:00,26.1,15.9,30.00,North,355,1.0,22.0,65,0.00,,,0.00,Wunderground v.1.15,2013-03-15 23:50:00,
2013-03-15 19:55:00,25.9,15.4,30.00,NNW,333,2.0,22.0,64,0.00,,,0.00,Wunderground v.1.15,2013-03-15 23:55:00,
2013-03-15 20:00:00,25.8,15.3,30.00,NNW,332,2.0,22.0,64,0.00,,,0.00,Wunderground v.1.15,2013-03-16 00:00:00,
2013-03-15 20:05:00,25.8,15.3,30.00,NNW,335,2.0,22.0,64,0.00,,,0.00,Wunderground v.1.15,2013-03-16 00:05:00,
2013-03-15 20:15:00,25.7,15.2,30.00,NW,323,2.0,22.0,64,0.00,,,0.00,Wunderground v.1.15,2013-03-16 00:15:00,
2013-03-15 20:20:00,25.6,15.1,30.00,NW,325,3.0,3.0,64,0.00,,,0.00,Wunderground v.1.15,2013-03-16 00:20:00,
2013-03-15 20:25:00,25.6,15.1,30.01,WNW,303,2.0,22.0,64,0.00,,,0.00,Wunderground v.1.15,2013-03-16 00:25:00,
2013-03-15 20:30:00,25.5,14.6,30.01,NW,310,2.0,22.0,63,0.00,,,0.00,Wunderground v.1.15,2013-03-16 00:30:00,
2013-03-15 20:35:00,25.5,14.6,30.01,NW,319,2.0,22.0,63,0.00,,,0.00,Wunderground v.1.15,2013-03-16 00:35:00,
2013-03-15 20:40:00,25.5,14.6,30.01,NNW,341,1.0,1.0,63,0.00,,,0.00,Wunderground v.1.15,2013-03-16 00:40:00,
2013-03-15 20:50:00,25.5,14.3,30.01,NW,310,1.0,22.0,62,0.00,,,0.00,Wunderground v.1.15,2013-03-16 00:50:00,
2013-03-15 20:55:00,25.4,14.5,30.01,NNW,336,1.0,22.0,63,0.00,,,0.00,Wunderground v.1.15,2013-03-16 00:55:00,
2013-03-15 21:00:00,25.4,14.5,30.01,North,355,1.0,22.0,63,0.00,,,0.00,Wunderground v.1.15,2013-03-16 01:00:00,
2013-03-15 21:05:00,25.4,14.9,30.01,NNW,341,2.0,22.0,64,0.00,,,0.00,Wunderground v.1.15,2013-03-16 01:05:00,
2013-03-15 21:10:00,25.3,15.2,30.01,NNW,346,1.0,22.0,65,0.00,,,0.00,Wunderground v.1.15,2013-03-16 01:10:00,
2013-03-15 21:20:00,25.1,13.9,30.01,NNW,340,3.0,3.0,62,0.00,,,0.00,Wunderground v.1.15,2013-03-16 01:20:00,
2013-03-15 21:25:00,25.0,14.2,30.01,NNW,328,2.0,22.0,63,0.00,,,0.00,Wunderground v.1.15,2013-03-16 01:25:00,
2013-03-15 21:30:00,24.9,14.1,30.01,NNW,330,2.0,22.0,63,0.00,,,0.00,Wunderground v.1.15,2013-03-16 01:30:00,
2013-03-15 21:35:00,24.8,14.0,30.01,NNE,16,2.0,22.0,63,0.00,,,0.00,Wunderground v.1.15,2013-03-16 01:35:00,
2013-03-15 21:40:00,24.7,13.9,30.01,NE,54,2.0,2.0,63,0.00,,,0.00,Wunderground v.1.15,2013-03-16 01:40:00,
2013-03-15 21:45:00,24.7,14.2,30.01,NW,322,1.0,22.0,64,0.00,,,0.00,Wunderground v.1.15,2013-03-16 01:45:00,
2013-03-15 21:50:00,24.6,14.9,30.01,NW,316,0.0,22.0,66,0.00,,,0.00,Wunderground v.1.15,2013-03-16 01:50:00,
2013-03-15 21:55:00,24.6,15.2,30.01,North,355,1.0,22.0,67,0.00,,,0.00,Wunderground v.1.15,2013-03-16 01:55:00,
2013-03-15 22:00:00,24.4,15.0,30.01,NW,304,1.0,22.0,67,0.00,,,0.00,Wunderground v.1.15,2013-03-16 02:00:00,
2013-03-15 22:05:00,24.3,14.9,30.02,North,355,3.0,22.0,67,0.00,,,0.00,Wunderground v.1.15,2013-03-16 02:05:00,
2013-03-15 22:10:00,24.1,15.4,30.01,NNW,340,3.0,22.0,69,0.00,,,0.00,Wunderground v.1.15,2013-03-16 02:10:00,
2013-03-15 22:15:00,23.9,14.5,30.01,NNW,334,3.0,22.0,67,0.00,,,0.00,Wunderground v.1.15,2013-03-16 02:15:00,
2013-03-15 22:25:00,23.8,14.8,30.01,NNW,331,2.0,22.0,68,0.00,,,0.00,Wunderground v.1.15,2013-03-16 02:25:00,
2013-03-15 22:30:00,23.7,14.7,30.01,NNW,340,1.0,22.0,68,0.00,,,0.00,Wunderground v.1.15,2013-03-16 02:30:00,
2013-03-15 22:35:00,23.6,14.6,30.01,NNW,333,2.0,22.0,68,0.00,,,0.00,Wunderground v.1.15,2013-03-16 02:35:00,
2013-03-15 22:40:00,23.5,14.5,30.01,NW,323,1.0,1.0,68,0.00,,,0.00,Wunderground v.1.15,2013-03-16 02:40:00,
2013-03-15 22:45:00,23.5,14.5,30.00,NE,44,1.0,22.0,68,0.00,,,0.00,Wunderground v.1.15,2013-03-16 02:45:00,
2013-03-15 22:50:00,23.4,14.4,30.01,North,355,1.0,22.0,68,0.00,,,0.00,Wunderground v.1.15,2013-03-16 02:50:00,
2013-03-15 23:00:00,23.2,13.9,30.00,NE,52,1.0,22.0,67,0.00,,,0.00,Wunderground v.1.15,2013-03-16 03:00:00,
2013-03-15 23:05:00,23.1,13.8,30.00,NW,317,1.0,22.0,67,0.00,,,0.00,Wunderground v.1.15,2013-03-16 03:05:00,
2013-03-15 23:10:00,23.1,14.1,30.01,NW,315,2.0,2.0,68,0.00,,,0.00,Wunderground v.1.15,2013-03-16 03:10:00,
2013-03-15 23:15:00,23.1,13.8,30.01,NW,316,1.0,22.0,67,0.00,,,0.00,Wunderground v.1.15,2013-03-16 03:15:00,
2013-03-15 23:25:00,22.9,12.5,30.01,NE,40,2.0,22.0,64,0.00,,,0.00,Wunderground v.1.15,2013-03-16 03:25:00,
2013-03-15 23:35:00,22.7,13.0,30.01,NNW,327,2.0,22.0,66,0.00,,,0.00,Wunderground v.1.15,2013-03-16 03:35:00,
2013-03-15 23:40:00,22.7,13.4,30.01,NNW,330,2.0,2.0,67,0.00,,,0.00,Wunderground v.1.15,2013-03-16 03:40:00,
2013-03-15 23:45:00,22.6,13.3,30.01,NNW,331,1.0,22.0,67,0.00,,,0.00,Wunderground v.1.15,2013-03-16 03:45:00,
2013-03-15 23:50:00,22.6,13.6,30.01,NW,315,2.0,22.0,68,0.00,,,0.00,Wunderground v.1.15,2013-03-16 03:50:00,
2013-03-15 23:55:00,22.5,13.2,30.01,NW,317,2.0,22.0,67,0.00,,,0.00,Wunderground v.1.15,2013-03-16 03:55:00,